owner,sensor,date,latitude,longitude,vertical_datum,direction_of_sea_water_velocity,sea_water_speed,upward_sea_water_velocity,qcFlag 
TABS,ioos:station:wmo:42044:1,2007-05-01T00:00:00Z,26.1914,-97.0507,2.0,335.0352424,4.004122875,-99999.0,'11133222,11111222,99999999' 
TABS,ioos:station:wmo:42044:1,2007-05-01T00:30:00Z,26.1914,-97.0507,2.0,292.9730885,4.996248593,-99999.0,'11133222,11111222,99999999' 
TABS,ioos:station:wmo:42044:1,2007-05-01T01:00:00Z,26.1914,-97.0507,2.0,315.0003157,2.998132752,-99999.0,'11133222,11111222,99999999' 
TABS,ioos:station:wmo:42044:1,2007-05-01T01:30:00Z,26.1914,-97.0507,2.0,292.9730885,4.996248593,-99999.0,'11133222,11111222,99999999' 
TABS,ioos:station:wmo:42044:1,2007-05-01T02:00:00Z,26.1914,-97.0507,2.0,90.0,1.0,-99999.0,'11133222,11111222,99999999' 
TABS,ioos:station:wmo:42044:1,2007-05-01T02:30:00Z,26.1914,-97.0507,2.0,345.0108153,6.998121176,-99999.0,'11133222,11111222,99999999' 
TABS,ioos:station:wmo:42044:1,2007-05-01T03:00:00Z,26.1914,-97.0507,2.0,200.0643741,3.002215848,-99999.0,'11133222,11111222,99999999' 
TABS,ioos:station:wmo:42044:1,2007-05-01T03:30:00Z,26.1914,-97.0507,2.0,343.9761383,9.998484885,-99999.0,'11133222,11111222,99999999' 
TABS,ioos:station:wmo:42044:1,2007-05-01T05:00:00Z,26.1914,-97.0507,2.0,73.99561575,56.00055803,-99999.0,'11111222,11111222,99999999' 
TABS,ioos:station:wmo:42044:1,2007-05-01T17:00:00Z,26.1914,-97.0507,2.0,304.4252328,6.704103221,-99999.0,'11133222,11111222,99999999' 
TABS,ioos:station:wmo:42044:1,2007-05-01T17:30:00Z,26.1914,-97.0507,2.0,3.749479238,7.64636515,-99999.0,'11133222,11111222,99999999' 
TABS,ioos:station:wmo:42044:1,2007-05-01T18:00:00Z,26.1914,-97.0507,2.0,9.98368154,5.422102913,-99999.0,'11133222,11111222,99999999' 
TABS,ioos:station:wmo:42044:1,2007-05-01T18:30:00Z,26.1914,-97.0507,2.0,356.6780698,7.592759709,-99999.0,'11133222,11111222,99999999' 
TABS,ioos:station:wmo:42044:1,2007-05-01T19:00:00Z,26.1914,-97.0507,2.0,315.2483472,3.26686394,-99999.0,'11133222,11111222,99999999' 
TABS,ioos:station:wmo:42044:1,2007-05-01T19:30:00Z,26.1914,-97.0507,2.0,4.560829426,10.31265242,-99999.0,'11111222,11111222,99999999' 
TABS,ioos:station:wmo:42044:1,2007-05-01T20:00:00Z,26.1914,-97.0507,2.0,318.4093358,5.588962337,-99999.0,'11133222,11111222,99999999' 
TABS,ioos:station:wmo:42044:1,2007-05-01T20:30:00Z,26.1914,-97.0507,2.0,320.9483146,7.301294406,-99999.0,'11133222,11111222,99999999' 
TABS,ioos:station:wmo:42044:1,2007-05-01T21:00:00Z,26.1914,-97.0507,2.0,327.945566,7.386067966,-99999.0,'11133222,11111222,99999999' 
TABS,ioos:station:wmo:42044:1,2007-05-01T21:30:00Z,26.1914,-97.0507,2.0,355.3088527,8.558673963,-99999.0,'11133222,11111222,99999999' 
TABS,ioos:station:wmo:42044:1,2007-05-01T22:00:00Z,26.1914,-97.0507,2.0,291.9299574,2.490180716,-99999.0,'11133222,11111222,99999999' 
TABS,ioos:station:wmo:42044:1,2007-05-01T22:30:00Z,26.1914,-97.0507,2.0,357.1482287,8.240206308,-99999.0,'11133222,11111222,99999999' 
TABS,ioos:station:wmo:42044:1,2007-05-01T23:00:00Z,26.1914,-97.0507,2.0,288.7304451,4.297592349,-99999.0,'11133222,11111222,99999999' 
TABS,ioos:station:wmo:42044:1,2007-05-01T23:30:00Z,26.1914,-97.0507,2.0,333.8333647,13.51512116,-99999.0,'11111222,11111222,99999999' 
TABS,ioos:station:wmo:42044:1,2007-05-02T00:00:00Z,26.1914,-97.0507,2.0,312.5943508,5.895396509,-99999.0,'11133222,11111222,99999999' 
TABS,ioos:station:wmo:42044:1,2007-05-02T00:30:00Z,26.1914,-97.0507,2.0,327.9789601,7.619265056,-99999.0,'11133222,11111222,99999999' 
TABS,ioos:station:wmo:42044:1,2007-05-02T01:00:00Z,26.1914,-97.0507,2.0,232.2010442,1.974259355,-99999.0,'11133222,11111222,99999999' 
TABS,ioos:station:wmo:42044:1,2007-05-02T01:30:00Z,26.1914,-97.0507,2.0,336.699761,3.691029667,-99999.0,'11133222,11111222,99999999' 
TABS,ioos:station:wmo:42044:1,2007-05-02T02:00:00Z,26.1914,-97.0507,2.0,329.1737283,7.161801449,-99999.0,'11133222,11111222,99999999' 
TABS,ioos:station:wmo:42044:1,2007-05-02T02:30:00Z,26.1914,-97.0507,2.0,310.0065834,6.579855622,-99999.0,'11133222,11111222,99999999' 
TABS,ioos:station:wmo:42044:1,2007-05-02T03:00:00Z,26.1914,-97.0507,2.0,126.5183088,1.630030675,-99999.0,'11133222,11111222,99999999' 
TABS,ioos:station:wmo:42044:1,2007-05-02T03:30:00Z,26.1914,-97.0507,2.0,352.0306187,4.543886002,-99999.0,'11133222,11111222,99999999' 
TABS,ioos:station:wmo:42044:1,2007-05-02T04:00:00Z,26.1914,-97.0507,2.0,346.7038301,4.695881174,-99999.0,'11133222,11111222,99999999' 
TABS,ioos:station:wmo:42044:1,2007-05-02T04:30:00Z,26.1914,-97.0507,2.0,332.9047213,6.762159418,-99999.0,'11133222,11111222,99999999' 
TABS,ioos:station:wmo:42044:1,2007-05-02T05:00:00Z,26.1914,-97.0507,2.0,202.3697779,6.17467408,-99999.0,'11133222,11111222,99999999' 
TABS,ioos:station:wmo:42044:1,2007-05-02T05:30:00Z,26.1914,-97.0507,2.0,305.3652437,6.168127755,-99999.0,'11133222,11111222,99999999' 
TABS,ioos:station:wmo:42044:1,2007-05-02T06:00:00Z,26.1914,-97.0507,2.0,348.5647939,3.58108922,-99999.0,'11133222,11111222,99999999' 
TABS,ioos:station:wmo:42044:1,2007-05-02T06:30:00Z,26.1914,-97.0507,2.0,332.5870302,6.646322291,-99999.0,'11133222,11111222,99999999' 
TABS,ioos:station:wmo:42044:1,2007-05-02T07:00:00Z,26.1914,-97.0507,2.0,3.849393217,7.597137619,-99999.0,'11133222,11111222,99999999' 
TABS,ioos:station:wmo:42044:1,2007-05-02T07:30:00Z,26.1914,-97.0507,2.0,339.1919758,7.178203118,-99999.0,'11133222,11111222,99999999' 
TABS,ioos:station:wmo:42044:1,2007-05-02T08:00:00Z,26.1914,-97.0507,2.0,296.0825929,6.368547715,-99999.0,'11133222,11111222,99999999' 
TABS,ioos:station:wmo:42044:1,2007-05-02T08:30:00Z,26.1914,-97.0507,2.0,308.7917317,6.799823527,-99999.0,'11133222,11111222,99999999' 
TABS,ioos:station:wmo:42044:1,2007-05-02T09:00:00Z,26.1914,-97.0507,2.0,296.56541,2.146625258,-99999.0,'11133222,11111222,99999999' 
TABS,ioos:station:wmo:42044:1,2007-05-02T09:30:00Z,26.1914,-97.0507,2.0,29.04209298,8.795964984,-99999.0,'11133222,11111222,99999999' 
TABS,ioos:station:wmo:42044:1,2007-05-02T10:00:00Z,26.1914,-97.0507,2.0,309.7828886,3.188118567,-99999.0,'11133222,11111222,99999999' 
TABS,ioos:station:wmo:42044:1,2007-05-02T10:30:00Z,26.1914,-97.0507,2.0,349.8482502,7.375472866,-99999.0,'11133222,11111222,99999999' 
TABS,ioos:station:wmo:42044:1,2007-05-02T11:00:00Z,26.1914,-97.0507,2.0,271.0613301,1.080185169,-99999.0,'11133222,11111222,99999999' 
TABS,ioos:station:wmo:42044:1,2007-05-02T11:30:00Z,26.1914,-97.0507,2.0,341.980028,14.41720153,-99999.0,'11111222,11111222,99999999' 
TABS,ioos:station:wmo:42044:1,2007-05-02T12:00:00Z,26.1914,-97.0507,2.0,298.9630881,3.634556369,-99999.0,'11133222,11111222,99999999' 
TABS,ioos:station:wmo:42044:1,2007-05-02T12:30:00Z,26.1914,-97.0507,2.0,331.2673362,7.093412437,-99999.0,'11133222,11111222,99999999' 
TABS,ioos:station:wmo:42044:1,2007-05-02T13:00:00Z,26.1914,-97.0507,2.0,315.3489664,3.486100974,-99999.0,'11133222,11111222,99999999' 
TABS,ioos:station:wmo:42044:1,2007-05-02T13:30:00Z,26.1914,-97.0507,2.0,301.5121472,6.275420305,-99999.0,'11133222,11111222,99999999' 
TABS,ioos:station:wmo:42044:1,2007-05-02T14:00:00Z,26.1914,-97.0507,2.0,2.876503336,6.177782774,-99999.0,'11133222,11111222,99999999' 
TABS,ioos:station:wmo:42044:1,2007-05-02T14:30:00Z,26.1914,-97.0507,2.0,311.4363326,4.094996947,-99999.0,'11133222,11111222,99999999' 
TABS,ioos:station:wmo:42044:1,2007-05-02T15:00:00Z,26.1914,-97.0507,2.0,325.2544564,5.71993007,-99999.0,'11133222,11111222,99999999' 
TABS,ioos:station:wmo:42044:1,2007-05-02T15:30:00Z,26.1914,-97.0507,2.0,337.625377,5.936977345,-99999.0,'11133222,11111222,99999999' 
TABS,ioos:station:wmo:42044:1,2007-05-02T16:00:00Z,26.1914,-97.0507,2.0,324.4535686,7.361963053,-99999.0,'11133222,11111222,99999999' 
TABS,ioos:station:wmo:42044:1,2007-05-02T16:30:00Z,26.1914,-97.0507,2.0,198.912717,2.653243298,-99999.0,'11133222,11111222,99999999' 
TABS,ioos:station:wmo:42044:1,2007-05-02T17:00:00Z,26.1914,-97.0507,2.0,304.6954933,6.166441437,-99999.0,'11133222,11111222,99999999' 
TABS,ioos:station:wmo:42044:1,2007-05-02T17:30:00Z,26.1914,-97.0507,2.0,332.1056692,11.1788774,-99999.0,'11111222,11111222,99999999' 
TABS,ioos:station:wmo:42044:1,2007-05-02T18:00:00Z,26.1914,-97.0507,2.0,323.130399,4.8,-99999.0,'11133222,11111222,99999999' 
TABS,ioos:station:wmo:42044:1,2007-05-02T18:30:00Z,26.1914,-97.0507,2.0,270.5301036,6.490277344,-99999.0,'11133222,11111222,99999999' 
TABS,ioos:station:wmo:42044:1,2007-05-02T19:00:00Z,26.1914,-97.0507,2.0,3.720308632,7.706237733,-99999.0,'11133222,11111222,99999999' 
TABS,ioos:station:wmo:42044:1,2007-05-02T19:30:00Z,26.1914,-97.0507,2.0,331.182661,11.03681566,-99999.0,'11111222,11111222,99999999' 
TABS,ioos:station:wmo:42044:1,2007-05-02T20:00:00Z,26.1914,-97.0507,2.0,315.4376785,6.484358102,-99999.0,'11133222,11111222,99999999' 
TABS,ioos:station:wmo:42044:1,2007-05-02T20:30:00Z,26.1914,-97.0507,2.0,339.5870504,7.51172417,-99999.0,'11133222,11111222,99999999' 
TABS,ioos:station:wmo:42044:1,2007-05-02T21:00:00Z,26.1914,-97.0507,2.0,284.4622485,4.244490547,-99999.0,'11133222,11111222,99999999' 
TABS,ioos:station:wmo:42044:1,2007-05-02T21:30:00Z,26.1914,-97.0507,2.0,327.3149382,7.592239459,-99999.0,'11133222,11111222,99999999' 
TABS,ioos:station:wmo:42044:1,2007-05-02T22:00:00Z,26.1914,-97.0507,2.0,132.121532,1.267320007,-99999.0,'11133222,11111222,99999999' 
TABS,ioos:station:wmo:42044:1,2007-05-02T22:30:00Z,26.1914,-97.0507,2.0,333.6188607,4.185940754,-99999.0,'11133222,11111222,99999999' 
TABS,ioos:station:wmo:42044:1,2007-05-02T23:00:00Z,26.1914,-97.0507,2.0,5.746466231,4.794090112,-99999.0,'11133222,11111222,99999999' 
TABS,ioos:station:wmo:42044:1,2007-05-02T23:30:00Z,26.1914,-97.0507,2.0,201.0372514,1.392838828,-99999.0,'11133222,11111222,99999999' 
TABS,ioos:station:wmo:42044:1,2007-05-03T00:00:00Z,26.1914,-97.0507,2.0,337.1550899,7.237748269,-99999.0,'11133222,11111222,99999999' 
TABS,ioos:station:wmo:42044:1,2007-05-03T00:30:00Z,26.1914,-97.0507,2.0,351.0005147,10.99536266,-99999.0,'11111222,11111222,99999999' 
TABS,ioos:station:wmo:42044:1,2007-05-03T01:00:00Z,26.1914,-97.0507,2.0,0.000210459,1.0,-99999.0,'11133222,11111222,99999999' 
TABS,ioos:station:wmo:42044:1,2007-05-03T01:30:00Z,26.1914,-97.0507,2.0,356.9814075,15.00081664,-99999.0,'11111222,11111222,99999999' 
TABS,ioos:station:wmo:42044:1,2007-05-03T02:00:00Z,26.1914,-97.0507,2.0,224.9996843,4.002224382,-99999.0,'11133222,11111222,99999999' 
TABS,ioos:station:wmo:42044:1,2007-05-03T02:30:00Z,26.1914,-97.0507,2.0,27.07789854,1.999124809,-99999.0,'11133222,11111222,99999999' 
TABS,ioos:station:wmo:42044:1,2007-05-03T03:00:00Z,26.1914,-97.0507,2.0,315.0003157,5.996265504,-99999.0,'11133222,11111222,99999999' 
TABS,ioos:station:wmo:42044:1,2007-05-03T03:30:00Z,26.1914,-97.0507,2.0,327.0141756,6.998071163,-99999.0,'11133222,11111222,99999999' 
TABS,ioos:station:wmo:42044:1,2007-05-03T04:00:00Z,26.1914,-97.0507,2.0,257.0049927,4.002499219,-99999.0,'11133222,11111222,99999999' 
TABS,ioos:station:wmo:42044:1,2007-05-03T04:30:00Z,26.1914,-97.0507,2.0,343.9761383,9.998484885,-99999.0,'11133222,11111222,99999999' 
TABS,ioos:station:wmo:42044:1,2007-05-03T05:00:00Z,26.1914,-97.0507,2.0,326.9463721,3.996861269,-99999.0,'11133222,11111222,99999999' 
TABS,ioos:station:wmo:42044:1,2007-05-03T05:30:00Z,26.1914,-97.0507,2.0,20.06479502,3.002215848,-99999.0,'11133222,11111222,99999999' 
TABS,ioos:station:wmo:42044:1,2007-05-03T06:00:00Z,26.1914,-97.0507,2.0,64.84468639,1.999649969,-99999.0,'11133222,11111222,99999999' 
TABS,ioos:station:wmo:42044:1,2007-05-03T06:30:00Z,26.1914,-97.0507,2.0,236.9457407,3.996861269,-99999.0,'11133222,11111222,99999999' 
TABS,ioos:station:wmo:42044:1,2007-05-03T07:00:00Z,26.1914,-97.0507,2.0,304.9219571,4.000312488,-99999.0,'11133222,11111222,99999999' 
TABS,ioos:station:wmo:42044:1,2007-05-03T07:30:00Z,26.1914,-97.0507,2.0,10.95424749,5.999308293,-99999.0,'11133222,11111222,99999999' 
TABS,ioos:station:wmo:42044:1,2007-05-03T08:00:00Z,26.1914,-97.0507,2.0,350.9928772,6.004040306,-99999.0,'11133222,11111222,99999999' 
TABS,ioos:station:wmo:42044:1,2007-05-03T08:30:00Z,26.1914,-97.0507,2.0,311.0783824,2.998082721,-99999.0,'11133222,11111222,99999999' 
TABS,ioos:station:wmo:42044:1,2007-05-03T09:00:00Z,26.1914,-97.0507,2.0,315.0003157,7.000357134,-99999.0,'11133222,11111222,99999999' 
TABS,ioos:station:wmo:42044:1,2007-05-03T09:30:00Z,26.1914,-97.0507,2.0,343.9997649,60.00461649,-99999.0,'11111222,11111222,99999999' 
TABS,ioos:station:wmo:42044:1,2007-05-03T10:00:00Z,26.1914,-97.0507,2.0,350.0002061,95.99844009,-99999.0,'11111222,11111222,99999999' 
TABS,ioos:station:wmo:42044:1,2007-05-03T10:30:00Z,26.1914,-97.0507,2.0,287.9924317,27.00033333,-99999.0,'11111222,11111222,99999999' 
TABS,ioos:station:wmo:42044:1,2007-05-03T11:00:00Z,26.1914,-97.0507,2.0,216.00051,65.00547823,-99999.0,'11111222,11111222,99999999' 
TABS,ioos:station:wmo:42044:1,2007-05-03T11:30:00Z,26.1914,-97.0507,2.0,158.9947347,33.00310591,-99999.0,'11111222,11111222,99999999' 
TABS,ioos:station:wmo:42044:1,2007-05-03T12:00:00Z,26.1914,-97.0507,2.0,139.9986884,96.00133176,-99999.0,'11111222,11111222,99999999' 
TABS,ioos:station:wmo:42044:1,2007-05-03T12:30:00Z,26.1914,-97.0507,2.0,359.0023537,89.00349768,-99999.0,'11111222,11144222,99999999' 
TABS,ioos:station:wmo:42044:1,2007-05-03T13:00:00Z,26.1914,-97.0507,2.0,13.99671322,48.99463338,-99999.0,'11111222,11111222,99999999' 
TABS,ioos:station:wmo:42044:1,2007-05-03T13:30:00Z,26.1914,-97.0507,2.0,18.00358696,55.00305537,-99999.0,'11111222,11111222,99999999' 
TABS,ioos:station:wmo:42044:1,2007-05-03T14:00:00Z,26.1914,-97.0507,2.0,27.00080202,59.99991,-99999.0,'11111222,11111222,99999999' 
TABS,ioos:station:wmo:42044:1,2007-05-03T14:30:00Z,26.1914,-97.0507,2.0,73.99561575,56.00055803,-99999.0,'11111222,11111222,99999999' 
TABS,ioos:station:wmo:42044:1,2007-05-03T15:00:00Z,26.1914,-97.0507,2.0,127.9968628,103.0019272,-99999.0,'11111222,11111222,99999999' 
TABS,ioos:station:wmo:42044:1,2007-05-03T15:30:00Z,26.1914,-97.0507,2.0,4.987121958,12.99920767,-99999.0,'11111222,11111222,99999999' 
TABS,ioos:station:wmo:42044:1,2007-05-03T16:00:00Z,26.1914,-97.0507,2.0,136.9983049,88.00346584,-99999.0,'11111222,11111222,99999999' 
TABS,ioos:station:wmo:42044:1,2007-05-03T16:30:00Z,26.1914,-97.0507,2.0,86.98119708,15.00081664,-99999.0,'11111222,11111222,99999999' 
TABS,ioos:station:wmo:42044:1,2007-05-03T17:00:00Z,26.1914,-97.0507,2.0,17.99396496,45.99985435,-99999.0,'11111222,11111222,99999999' 
TABS,ioos:station:wmo:42044:1,2007-05-03T17:30:00Z,26.1914,-97.0507,2.0,71.99763838,30.99752893,-99999.0,'11111222,11111222,99999999' 
TABS,ioos:station:wmo:42044:1,2007-05-03T18:00:00Z,26.1914,-97.0507,2.0,134.9998948,23.99920415,-99999.0,'11111222,11111222,99999999' 
TABS,ioos:station:wmo:42044:1,2007-05-03T18:30:00Z,26.1914,-97.0507,2.0,105.0090169,28.99931378,-99999.0,'11111222,11111222,99999999' 
TABS,ioos:station:wmo:42044:1,2007-05-03T19:00:00Z,26.1914,-97.0507,2.0,82.99837229,52.99520356,-99999.0,'11111222,11111222,99999999' 
TABS,ioos:station:wmo:42044:1,2007-05-03T19:30:00Z,26.1914,-97.0507,2.0,90.0,89.0,-99999.0,'11111222,11111222,99999999' 
TABS,ioos:station:wmo:42044:1,2007-05-03T20:00:00Z,26.1914,-97.0507,2.0,69.00241075,64.99604988,-99999.0,'11111222,11111222,99999999' 
TABS,ioos:station:wmo:42044:1,2007-05-03T20:30:00Z,26.1914,-97.0507,2.0,32.99951863,51.99860094,-99999.0,'11111222,11111222,99999999' 
TABS,ioos:station:wmo:42044:1,2007-05-03T21:00:00Z,26.1914,-97.0507,2.0,73.99561575,56.00055803,-99999.0,'11111222,11111222,99999999' 
TABS,ioos:station:wmo:42044:1,2007-05-03T21:30:00Z,26.1914,-97.0507,2.0,99.00563204,45.99700969,-99999.0,'11111222,11111222,99999999' 
TABS,ioos:station:wmo:42044:1,2007-05-03T22:00:00Z,26.1914,-97.0507,2.0,357.0063928,26.99684611,-99999.0,'11111222,11111222,99999999' 
TABS,ioos:station:wmo:42044:1,2007-05-03T22:30:00Z,26.1914,-97.0507,2.0,99.00611077,32.0045653,-99999.0,'11111222,11111222,99999999' 
TABS,ioos:station:wmo:42044:1,2007-05-03T23:00:00Z,26.1914,-97.0507,2.0,8.013787919,15.99620267,-99999.0,'11111222,11111222,99999999' 
TABS,ioos:station:wmo:42044:1,2007-05-03T23:30:00Z,26.1914,-97.0507,2.0,174.0041276,17.99845549,-99999.0,'11111222,11111222,99999999' 
TABS,ioos:station:wmo:42044:1,2007-05-04T00:00:00Z,26.1914,-97.0507,2.0,158.9966159,17.99562447,-99999.0,'11111222,11111222,99999999' 
TABS,ioos:station:wmo:42044:1,2007-05-04T00:30:00Z,26.1914,-97.0507,2.0,148.9928753,25.00278584,-99999.0,'11111222,11111222,99999999' 
TABS,ioos:station:wmo:42044:1,2007-05-04T01:00:00Z,26.1914,-97.0507,2.0,131.9823823,8.999805553,-99999.0,'11133222,11111222,99999999' 
TABS,ioos:station:wmo:42044:1,2007-05-04T01:30:00Z,26.1914,-97.0507,2.0,306.0021829,33.00378766,-99999.0,'11111222,11111222,99999999' 
TABS,ioos:station:wmo:42044:1,2007-05-04T02:00:00Z,26.1914,-97.0507,2.0,120.0006576,89.99801998,-99999.0,'11111222,11111222,99999999' 
TABS,ioos:station:wmo:42044:1,2007-05-04T02:30:00Z,26.1914,-97.0507,2.0,104.0022802,86.00557308,-99999.0,'11111222,11111222,99999999' 
TABS,ioos:station:wmo:42044:1,2007-05-04T03:00:00Z,26.1914,-97.0507,2.0,122.0003839,110.9966184,-99999.0,'11111222,11111222,99999999' 
TABS,ioos:station:wmo:42044:1,2007-05-04T03:30:00Z,26.1914,-97.0507,2.0,131.0016353,115.0008983,-99999.0,'11111222,11111222,99999999' 
TABS,ioos:station:wmo:42044:1,2007-05-04T04:30:00Z,26.1914,-97.0507,2.0,128.9979159,126.9995921,-99999.0,'11111222,11111222,99999999' 
TABS,ioos:station:wmo:42044:1,2007-05-04T05:00:00Z,26.1914,-97.0507,2.0,84.00029067,84.00011905,-99999.0,'11111222,11111222,99999999' 
TABS,ioos:station:wmo:42044:1,2007-05-04T05:30:00Z,26.1914,-97.0507,2.0,196.9961416,82.00156889,-99999.0,'11111222,11111222,99999999' 
TABS,ioos:station:wmo:42044:1,2007-05-04T06:00:00Z,26.1914,-97.0507,2.0,23.99900395,87.99702381,-99999.0,'11111222,11111222,99999999' 
TABS,ioos:station:wmo:42044:1,2007-05-04T06:30:00Z,26.1914,-97.0507,2.0,115.9922024,33.99887645,-99999.0,'11111222,11111222,99999999' 
TABS,ioos:station:wmo:42044:1,2007-05-04T07:00:00Z,26.1914,-97.0507,2.0,51.00152336,13.99966071,-99999.0,'11111222,11111222,99999999' 
TABS,ioos:station:wmo:42044:1,2007-05-04T07:30:00Z,26.1914,-97.0507,2.0,80.99266673,6.004040306,-99999.0,'11133222,11111222,99999999' 
TABS,ioos:station:wmo:42044:1,2007-05-04T08:00:00Z,26.1914,-97.0507,2.0,341.9956652,31.99682797,-99999.0,'11111222,11111222,99999999' 
TABS,ioos:station:wmo:42044:1,2007-05-04T08:30:00Z,26.1914,-97.0507,2.0,74.99621205,25.99624973,-99999.0,'11111222,11111222,99999999' 
TABS,ioos:station:wmo:42044:1,2007-05-04T09:00:00Z,26.1914,-97.0507,2.0,31.99733022,89.00166291,-99999.0,'11111222,11111222,99999999' 
TABS,ioos:station:wmo:42044:1,2007-05-04T09:30:00Z,26.1914,-97.0507,2.0,26.00282859,112.9984301,-99999.0,'11111222,11111222,99999999' 
TABS,ioos:station:wmo:42044:1,2007-05-04T10:00:00Z,26.1914,-97.0507,2.0,25.99825403,127.0014622,-99999.0,'11111222,11111222,99999999' 
TABS,ioos:station:wmo:42044:1,2007-05-04T10:30:00Z,26.1914,-97.0507,2.0,32.99866135,90.99964835,-99999.0,'11111222,11111222,99999999' 
TABS,ioos:station:wmo:42044:1,2007-05-04T11:00:00Z,26.1914,-97.0507,2.0,33.00110444,107.0038597,-99999.0,'11111222,11111222,99999999' 
TABS,ioos:station:wmo:42044:1,2007-05-04T11:30:00Z,26.1914,-97.0507,2.0,78.00184891,104.0020062,-99999.0,'11111222,11111222,99999999' 
TABS,ioos:station:wmo:42044:1,2007-05-04T12:00:00Z,26.1914,-97.0507,2.0,78.00246151,83.99474507,-99999.0,'11111222,11111222,99999999' 
TABS,ioos:station:wmo:42044:1,2007-05-07T15:00:00Z,26.1914,-97.0507,2.0,180.8374365,98.50052639,-99999.0,'11111222,11111222,99999999' 
TABS,ioos:station:wmo:42044:1,2007-05-07T15:30:00Z,26.1914,-97.0507,2.0,171.136422,79.89405297,-99999.0,'11111222,11111222,99999999' 
TABS,ioos:station:wmo:42044:1,2007-05-07T16:00:00Z,26.1914,-97.0507,2.0,174.9899262,89.66254123,-99999.0,'11111222,11111222,99999999' 
TABS,ioos:station:wmo:42044:1,2007-05-07T16:30:00Z,26.1914,-97.0507,2.0,165.0930369,92.90671881,-99999.0,'11111222,11111222,99999999' 
TABS,ioos:station:wmo:42044:1,2007-05-07T17:00:00Z,26.1914,-97.0507,2.0,151.3358995,41.88281987,-99999.0,'11111222,11111222,99999999' 
 
DISCLAIMER: The Gulf of Mexico Coastal and Ocean Observing (GCOOS) Data Portal aggregates data from the regional data providers for the convenience of all data users. Data published on this website should not be used for navigation or certain other uses as we cannot guarantee data accuracy or availability. The data and delivery services are provided 'as is' without warranty of any kind. Data Source: Gulf of Mexico Coastal Ocean Observing System Data Portal (http://data.gcoos.org/) 
